This demonstration page uses our WeatherBlox Daily Observations layout. Learn more.

Left ArrowRight Arrow

34.16533, -84.80231

Hourly Observations for July 20, 2020

Temp ( °F °C ) Dew Point ( °F °C ) Humidity (%) Winds ( mph kmh ) Pressure ( in mb ) Visibility ( mi km ) Precip ( " mm )
12:53 am 00:53 Clear 75 23.9 71 21.7 88 88 SE 3 6 30.01 1016 9 14 0.00 0.00
1:53 am 01:53 Clear 75 23.9 71 21.7 88 88 Calm 30.01 1016 10 16 0.00 0.00
2:53 am 02:53 Clear 74 23.3 71 21.7 91 91 Calm 30.02 1017 9 14 0.00 0.00
3:53 am 03:53 Partly Cloudy 74 23.3 71 21.7 91 91 Calm 30.03 1017 9 14 0.00 0.00
4:53 am 04:53 Clear 74 23.3 70 21.1 88 88 Calm 30.02 1017 7 11 0.00 0.00
5:53 am 05:53 Clear with Mist and Fog 73 22.8 70 21.1 90 90 Calm 30.03 1017 6 10 0.00 0.00
6:53 am 06:53 Sunny with Mist and Fog 72 22.2 69 20.6 91 91 Calm 30.04 1017 4 6 0.00 0.00
7:53 am 07:53 Sunny with Mist and Fog 75 23.9 71 21.7 88 88 Calm 30.05 1018 5 8 0.00 0.00
8:53 am 08:53 Sunny 80 26.7 73 22.8 79 79 Calm 30.05 1018 9 14 0.00 0.00
9:53 am 09:53 Sunny 84 28.9 73 22.8 70 70 VRB 3 6 30.05 1018 10 16 0.00 0.00
10:53 am 10:53 Sunny 89 31.7 72 22.2 57 57 Calm 30.04 1017 10 16 0.00 0.00
11:53 am 11:53 Sunny 92 33.3 72 22.2 52 52 N 8 13 30.03 1017 10 16 0.00 0.00
12:53 pm 12:53 Mostly Sunny 92 33.3 70 21.1 49 49 Calm 30.03 1017 10 16 0.00 0.00
1:53 pm 13:53 Mostly Sunny 94 34.4 71 21.7 48 48 Calm 30.01 1016 10 16 0.00 0.00
2:53 pm 14:53 Sunny 97 36.1 68 20 39 39 N 7 11 29.99 1016 10 16 0.00 0.00
3:53 pm 15:53 Mostly Cloudy 97 36.1 68 20 39 39 VRB 5 7 29.96 1015 10 16 0.00 0.00
4:53 pm 16:53 Sunny 98 36.7 66 18.9 35 35 VRB 3 6 29.94 1014 10 16 0.00 0.00
5:53 pm 17:53 Mostly Cloudy 98 36.7 66 18.9 35 35 Calm 29.93 1014 10 16 0.00 0.00
6:53 pm 18:53 Sunny 96 35.6 69 20.6 41 41 VRB 3 6 29.93 1014 10 16 0.00 0.00
7:53 pm 19:53 Mostly Sunny 92 33.3 70 21.1 49 49 Calm 29.95 1014 10 16 0.00 0.00
8:53 pm 20:53 Clear 84 28.9 73 22.8 70 70 S 3 6 29.98 1015 10 16 0.00 0.00
9:53 pm 21:53 Clear 84 28.9 72 22.2 67 67 Calm 30.00 1016 10 16 0.00 0.00
10:53 pm 22:53 Mostly Clear 83 28.3 72 22.2 70 70 Calm 30.02 1017 10 16 0.00 0.00
11:53 pm 23:53 Clear 80 26.7 69 20.6 69 69 Calm 30.02 1017 10 16 0.00 0.00

Powered by AerisWeather